Location: Anuling
(14.1239°N, 120.8922°E)
Time: 04:36:03
(UTC+00:00)

BlueWalker 3 - Pass Details

Date: 14 January 2026
Orbit: 450 x 461 km, 53.2° (Epoch: 7 February)

Event Time Altitude Azimuth Distance (km) Brightness Sun altitude
Rises 10:17:53 0° 179° (S) 2,446 5.7 -7.9°
Reaches altitude 10° 10:21:04 10° 148° (SSE) 1,573 4.3 -8.6°
Maximum altitude 10:22:36 12° 122° (ESE) 1,434 3.9 -9.0°
Enters shadow 10:24:07 10° 97° (E) 1,570 3.9 -9.3°
